When you browse on this site, cookies collect data to enhance your experience and personalize the content and advertising you see.
Visit our Privacy Policy to learn more. By continuing to use the site, you agree to this use of cookies and data.
  • In Hungary
  • List of Countries
  • For 7 days
  • Water Temperature
  • Weather Map
  • News
  • Weather Widgets
  • user-avatar
    Login

    Hourly Weather Gontlob

    Today, 22 October, Tuesday

    Time Temperature Precipitation Wind Pressure Humidity
    00:00 +6°C° 0 mm 1 mps 609 mmHg 84%
    01:00 +6°C° 0 mm 1 mps 609 mmHg 83%
    02:00 +6°C° 0 mm 1 mps 609 mmHg 83%
    03:00 +6°C° 0 mm 1 mps 608 mmHg 82%
    04:00 +6°C° 0 mm 1 mps 608 mmHg 78%
    05:00 +5°C° 0 mm 1 mps 608 mmHg 74%
    06:00 +5°C° 0 mm 1 mps 609 mmHg 70%
    07:00 +7°C° 0 mm 1 mps 609 mmHg 63%
    08:00 +9°C° 0 mm 1 mps 610 mmHg 56%
    09:00 +10°C° 0 mm 1 mps 611 mmHg 50%
    10:00 +11°C° 0 mm 1 mps 611 mmHg 48%
    11:00 +12°C° 0 mm 1 mps 612 mmHg 47%
    12:00 +13°C° 0 mm 2 mps 612 mmHg 46%
    13:00 +13°C° 0 mm 2 mps 612 mmHg 48%
    14:00 +13°C° 0 mm 2 mps 611 mmHg 50%
    15:00 +13°C° 0 mm 2 mps 611 mmHg 53%
    16:00 +11°C° 0 mm 1 mps 610 mmHg 63%
    17:00 +9°C° 0 mm 1 mps 610 mmHg 73%
    18:00 +6°C° 0 mm 0 mps 609 mmHg 83%
    19:00 +6°C° 0 mm 0 mps 609 mmHg 83%
    20:00 +6°C° 0 mm 0 mps 609 mmHg 83%
    21:00 +5°C° 0 mm 0 mps 609 mmHg 82%
    22:00 +6°C° 0 mm 1 mps 609 mmHg 82%
    23:00 +6°C° 0 mm 1 mps 608 mmHg 81%

    Tomorrow, 23 October, Wednesday

    Time Temperature Precipitation Wind Pressure Humidity
    00:00 +6°C° 0 mm 1 mps 608 mmHg 81%
    01:00 +6°C° 0 mm 1 mps 608 mmHg 79%
    02:00 +5°C° 0 mm 1 mps 608 mmHg 78%
    03:00 +5°C° 0 mm 1 mps 608 mmHg 77%
    04:00 +5°C° 0 mm 1 mps 608 mmHg 75%
    05:00 +5°C° 0 mm 1 mps 608 mmHg 73%
    06:00 +4°C° 0 mm 0 mps 607 mmHg 71%
    07:00 +7°C° 0 mm 1 mps 609 mmHg 62%
    08:00 +8°C° 0 mm 1 mps 610 mmHg 52%
    09:00 +10°C° 0 mm 1 mps 611 mmHg 43%
    10:00 +11°C° 0 mm 1 mps 611 mmHg 43%
    11:00 +12°C° 0 mm 2 mps 611 mmHg 44%
    12:00 +12°C° 0 mm 2 mps 611 mmHg 44%
    13:00 +12°C° 0 mm 2 mps 610 mmHg 47%
    14:00 +12°C° 0 mm 2 mps 610 mmHg 50%
    15:00 +12°C° 0 mm 2 mps 610 mmHg 53%
    16:00 +9°C° 0 mm 2 mps 609 mmHg 64%
    17:00 +8°C° 0 mm 1 mps 609 mmHg 75%
    18:00 +5°C° 0 mm 0 mps 608 mmHg 86%
    19:00 +5°C° 0 mm 0 mps 608 mmHg 86%
    20:00 +5°C° 0 mm 0 mps 608 mmHg 85%
    21:00 +5°C° 0 mm 0 mps 608 mmHg 85%
    22:00 +6°C° 0 mm 1 mps 608 mmHg 84%
    23:00 +5°C° 0 mm 1 mps 608 mmHg 84%

    Day after tomorrow, 24 October, Thursday

    Time Temperature Precipitation Wind Pressure Humidity
    00:00 +5°C° 0 mm 1 mps 608 mmHg 83%
    01:00 +5°C° 0 mm 1 mps 608 mmHg 83%
    02:00 +5°C° 0 mm 1 mps 608 mmHg 83%
    03:00 +5°C° 0 mm 1 mps 608 mmHg 82%
    04:00 +5°C° 0 mm 1 mps 608 mmHg 82%
    05:00 +5°C° 0 mm 1 mps 608 mmHg 82%
    06:00 +5°C° 0 mm 1 mps 608 mmHg 81%
    07:00 +6°C° 0 mm 1 mps 608 mmHg 73%
    08:00 +8°C° 0 mm 1 mps 609 mmHg 65%
    09:00 +10°C° 0 mm 1 mps 610 mmHg 57%
    10:00 +11°C° 0 mm 1 mps 610 mmHg 55%
    11:00 +11°C° 0 mm 1 mps 610 mmHg 53%
    12:00 +12°C° 0 mm 2 mps 610 mmHg 51%
    13:00 +12°C° 0 mm 2 mps 610 mmHg 52%
    14:00 +12°C° 0 mm 2 mps 610 mmHg 54%
    15:00 +12°C° 0 mm 1 mps 610 mmHg 56%
    16:00 +10°C° 0 mm 1 mps 609 mmHg 64%
    17:00 +9°C° 0 mm 1 mps 608 mmHg 73%
    18:00 +6°C° 0 mm 0 mps 608 mmHg 82%
    19:00 +7°C° 0 mm 1 mps 608 mmHg 83%
    20:00 +6°C° 0 mm 1 mps 608 mmHg 84%
    21:00 +6°C° 0 mm 1 mps 608 mmHg 85%
    22:00 +6°C° 0 mm 1 mps 607 mmHg 84%
    23:00 +6°C° 0 mm 1 mps 607 mmHg 83%

    25 October, Friday

    Time Temperature Precipitation Wind Pressure Humidity
    00:00 +6°C° 0 mm 1 mps 607 mmHg 82%
    01:00 +5°C° 0 mm 1 mps 607 mmHg 81%
    02:00 +5°C° 0 mm 1 mps 607 mmHg 80%
    03:00 +5°C° 0 mm 1 mps 606 mmHg 78%
    04:00 +5°C° 0 mm 1 mps 606 mmHg 76%
    05:00 +5°C° 0 mm 1 mps 606 mmHg 73%
    06:00 +5°C° 0 mm 1 mps 606 mmHg 70%
    07:00 +7°C° 0 mm 1 mps 607 mmHg 64%
    08:00 +8°C° 0 mm 1 mps 608 mmHg 57%
    09:00 +9°C° 0 mm 0 mps 608 mmHg 51%
    10:00 +11°C° 0 mm 1 mps 609 mmHg 50%
    11:00 +12°C° 0 mm 1 mps 609 mmHg 49%
    12:00 +12°C° 0 mm 2 mps 609 mmHg 48%
    13:00 +12°C° 0 mm 2 mps 609 mmHg 52%
    14:00 +12°C° 0 mm 2 mps 609 mmHg 56%
    15:00 +10°C° 0 mm 2 mps 609 mmHg 59%
    16:00 +10°C° 0 mm 1 mps 608 mmHg 70%
    17:00 +8°C° 0 mm 1 mps 607 mmHg 80%
    18:00 +6°C° 0 mm 0 mps 607 mmHg 90%
    19:00 +5°C° 0 mm 0 mps 607 mmHg 89%
    20:00 +6°C° 0 mm 1 mps 607 mmHg 88%
    21:00 +6°C° 0 mm 1 mps 607 mmHg 87%
    22:00 +6°C° 0 mm 1 mps 607 mmHg 87%
    23:00 +6°C° 0 mm 1 mps 607 mmHg 86%

    26 October, Saturday

    Time Temperature Precipitation Wind Pressure Humidity
    00:00 +6°C° 0 mm 1 mps 607 mmHg 86%
    01:00 +5°C° 0 mm 1 mps 607 mmHg 85%
    02:00 +5°C° 0 mm 1 mps 607 mmHg 84%
    03:00 +5°C° 0 mm 1 mps 607 mmHg 83%
    04:00 +5°C° 0 mm 1 mps 607 mmHg 82%
    05:00 +5°C° 0 mm 1 mps 607 mmHg 81%
    06:00 +5°C° 0 mm 1 mps 607 mmHg 80%
    07:00 +6°C° 0 mm 1 mps 608 mmHg 74%
    08:00 +8°C° 0 mm 1 mps 609 mmHg 67%
    09:00 +9°C° 0 mm 1 mps 610 mmHg 61%
    10:00 +10°C° 0 mm 1 mps 610 mmHg 59%
    11:00 +10°C° 0 mm 2 mps 610 mmHg 57%
    12:00 +12°C° 0 mm 2 mps 611 mmHg 55%
    13:00 +12°C° 0 mm 2 mps 610 mmHg 59%
    14:00 +10°C° 0 mm 2 mps 610 mmHg 63%
    15:00 +10°C° 0 mm 2 mps 610 mmHg 67%
    16:00 +10°C° 0 mm 1 mps 609 mmHg 74%
    17:00 +8°C° 0 mm 1 mps 609 mmHg 81%
    18:00 +7°C° 0 mm 1 mps 608 mmHg 88%
    19:00 +7°C° 0 mm 1 mps 608 mmHg 87%
    20:00 +6°C° 0 mm 1 mps 608 mmHg 86%
    21:00 +5°C° 0 mm 2 mps 608 mmHg 85%
    22:00 +5°C° 0 mm 2 mps 608 mmHg 84%
    23:00 +5°C° 0 mm 2 mps 607 mmHg 84%

    27 October, Sunday

    Time Temperature Precipitation Wind Pressure Humidity
    00:00 +4°C° 0 mm 2 mps 607 mmHg 84%
    01:00 +4°C° 0 mm 2 mps 607 mmHg 83%
    02:00 +4°C° 0 mm 2 mps 607 mmHg 83%
    03:00 +4°C° 0 mm 2 mps 607 mmHg 82%
    04:00 +4°C° 0 mm 2 mps 606 mmHg 82%
    05:00 +3°C° 0 mm 2 mps 606 mmHg 81%
    06:00 +3°C° 0 mm 2 mps 606 mmHg 80%
    07:00 +5°C° 0 mm 2 mps 607 mmHg 72%
    08:00 +6°C° 0 mm 2 mps 607 mmHg 63%
    09:00 +9°C° 0 mm 1 mps 608 mmHg 55%
    10:00 +10°C° 0 mm 1 mps 608 mmHg 53%
    11:00 +10°C° 0 mm 2 mps 608 mmHg 50%
    12:00 +12°C° 0 mm 2 mps 609 mmHg 48%
    13:00 +12°C° 0 mm 2 mps 608 mmHg 50%
    14:00 +10°C° 0 mm 2 mps 608 mmHg 52%
    15:00 +10°C° 0 mm 2 mps 608 mmHg 55%
    16:00 +10°C° 0 mm 1 mps 607 mmHg 62%
    17:00 +8°C° 0 mm 1 mps 606 mmHg 69%
    18:00 +6°C° 0 mm 0 mps 605 mmHg 76%
    19:00 +6°C° 0 mm 1 mps 605 mmHg 77%
    20:00 +6°C° 0 mm 1 mps 605 mmHg 77%
    21:00 +6°C° 0 mm 1 mps 605 mmHg 78%
    22:00 +6°C° 0 mm 1 mps 605 mmHg 78%
    23:00 +6°C° 0 mm 1 mps 604 mmHg 78%

    28 October, Monday

    Time Temperature Precipitation Wind Pressure Humidity
    00:00 +5°C° 0 mm 1 mps 604 mmHg 78%
    01:00 +5°C° 0 mm 1 mps 604 mmHg 77%
    02:00 +5°C° 0 mm 1 mps 603 mmHg 77%
    03:00 +5°C° 0 mm 1 mps 603 mmHg 76%
    04:00 +5°C° 0 mm 1 mps 603 mmHg 75%
    05:00 +5°C° 0 mm 1 mps 603 mmHg 74%
    06:00 +4°C° 0 mm 1 mps 603 mmHg 73%
    07:00 +6°C° 0 mm 1 mps 604 mmHg 67%
    08:00 +8°C° 0 mm 1 mps 604 mmHg 60%
    09:00 +9°C° 0 mm 1 mps 605 mmHg 54%
    10:00 +10°C° 0 mm 1 mps 605 mmHg 52%
    11:00 +10°C° 0 mm 2 mps 606 mmHg 50%
    12:00 +12°C° 0 mm 2 mps 606 mmHg 47%
    13:00 +12°C° 0 mm 2 mps 606 mmHg 50%
    14:00 +10°C° 0 mm 2 mps 606 mmHg 53%
    15:00 +10°C° 0 mm 2 mps 605 mmHg 56%
    16:00 +9°C° 0 mm 2 mps 605 mmHg 65%
    17:00 +8°C° 0 mm 1 mps 604 mmHg 74%
    18:00 +5°C° 0 mm 0 mps 604 mmHg 83%
    19:00 +6°C° 0 mm 1 mps 604 mmHg 83%
    20:00 +6°C° 0 mm 1 mps 604 mmHg 83%
    21:00 +6°C° 0 mm 1 mps 605 mmHg 83%
    22:00 +6°C° 0 mm 1 mps 604 mmHg 83%
    23:00 +6°C° 0 mm 1 mps 604 mmHg 82%
    Show more